Location: Lake Runnemede Observatory
(43.4843°N, 72.3851°W)
Time: 09:25:04
(UTC-05:00)

Amateur Radio Satellites - All Passes

Search period start: 26 January 2015 08:55
Search period end: 27 January 2015 08:55
Location: Lake Runnemede Observatory, 43.4843°N, 72.3851°W

Satellite Date Start Highest point End Downlink Frequencies (MHz)
Time Altitude Azimuth
BUGSAT 1 26 Jan 08:56:31 08:58:47 15° 64° (ENE) 09:01:13 437.445
POPSAT HIP 1 26 Jan 08:59:42 09:02:54 21° 66° (ENE) 09:06:13 437.405
DELFI C3 26 Jan 09:01:59 09:05:24 26° 95° (E) 09:08:52 145.870
DUCHIFAT 1 26 Jan 09:04:16 09:07:37 23° 67° (ENE) 09:11:04 145.980
UKube-1 26 Jan 09:08:56 09:12:23 23° 94° (E) 09:15:53 .
HO-68 26 Jan 09:12:22 09:19:33 81° 288° (WNW) 09:26:43 435.675
ZACube-1 26 Jan 09:16:40 09:20:20 25° 93° (E) 09:23:58 437.345
SEEDS 26 Jan 09:21:39 09:25:45 51° 287° (WNW) 09:29:49 437.485
DX 1 26 Jan 09:25:11 09:29:13 35° 97° (E) 09:33:16 434.975-435.025
FUNcube-1 26 Jan 09:29:34 09:33:37 33° 95° (E) 09:37:34 145.935
AISAT 26 Jan 09:34:00 09:36:58 18° 91° (E) 09:40:06 437.250
UNISAT 6 26 Jan 09:36:29 09:41:13 85° 76° (ENE) 09:45:57 437.425
NANOSAT C BR1 26 Jan 09:37:08 09:41:16 51° 73° (ENE) 09:45:28 145.865
YUBILEINY 26 Jan 09:38:12 09:38:59 10° 287° (WNW) 09:38:59 435.215
BRITE-PL 26 Jan 09:38:13 09:43:16 32° 293° (WNW) 09:48:07 437.365/2234.400
UWE-3 26 Jan 09:40:44 09:45:13 53° 99° (E) 09:49:34 435.000/436.395/437.385
HUMSAT D 26 Jan 09:46:29 09:50:09 27° 94° (E) 09:53:47 437.325/437.525
QB50P2 26 Jan 09:49:18 09:53:34 72° 75° (ENE) 09:57:52 145.880/145.840
GOMX 1 26 Jan 09:51:18 09:56:09 32° 293° (WNW) 10:00:48 467.674
COMPASS 1 26 Jan 09:53:36 09:57:13 28° 291° (WNW) 10:00:45 437.405
50 SAT 26 Jan 09:54:22 09:57:43 24° 94° (E) 10:01:05 437.505
CANX-2 26 Jan 09:58:10 10:01:08 18° 294° (WNW) 10:03:58 2200.000
QB50P1 26 Jan 09:59:52 10:04:08 89° 256° (WSW) 10:08:28 145.935-145.965
VELOX 1 26 Jan 10:03:19 10:07:25 34° 96° (E) 10:11:31 145.980
VERMONT LUNAR 26 Jan 10:07:09 10:10:10 27° 160° (SSE) 10:13:14 437.305
Oscar 11 26 Jan 10:11:08 10:15:14 43° 288° (WNW) 10:19:18 145.826/435.025
POLYITAN 1 26 Jan 10:12:19 10:16:35 64° 259° (WSW) 10:20:55 437.675
ANTELSAT 26 Jan 10:12:33 10:17:03 42° 263° (W) 10:21:32 437.575/2403.000
DOVE 4 26 Jan 10:20:06 10:24:17 24° 295° (WNW) 10:28:14 437.250
SO-50 26 Jan 10:21:31 10:25:30 31° 115° (ESE) 10:29:39 436.795
CUBEBUG 1 26 Jan 10:22:31 10:26:01 23° 93° (E) 10:29:36 437.445
TIGRISAT 26 Jan 10:22:36 10:26:55 34° 264° (W) 10:31:13 435.000
AAUSAT CUBESAT 2 26 Jan 10:23:20 10:26:02 17° 295° (WNW) 10:28:36 437.432
CUTE 1.7 + AOD 2 26 Jan 10:24:10 10:25:38 11° 298° (WNW) 10:26:55 437.475
BUGSAT 1 26 Jan 10:29:55 10:33:54 52° 260° (W) 10:37:58 437.445
BEESAT 2 26 Jan 10:29:55 10:33:12 22° 42° (NE) 10:36:30 435.950
CUBEBUG 2 26 Jan 10:30:02 10:34:25 41° 290° (WNW) 10:38:38 437.445
CINEMA 3 26 Jan 10:32:13 10:36:22 27° 293° (WNW) 10:40:17 145.822/145.860
POPSAT HIP 1 26 Jan 10:34:38 10:38:37 37° 263° (W) 10:42:38 437.405
AIST 1 26 Jan 10:34:44 10:37:44 19° 88° (E) 10:40:52
DELFI C3 26 Jan 10:37:13 10:40:37 26° 291° (WNW) 10:43:57 145.870
DUCHIFAT 1 26 Jan 10:39:28 10:43:21 33° 264° (W) 10:47:14 145.980
RS-15 26 Jan 10:39:37 10:48:22 26° 11° (N) 10:57:28 29.354- 29.394
UKube-1 26 Jan 10:44:40 10:48:40 35° 291° (WNW) 10:52:35 .
PHONESAT 2.4 26 Jan 10:45:48 10:49:01 30° 161° (SSE) 10:52:15 2401.200-2431.200
BEESAT 3 26 Jan 10:47:18 10:51:05 32° 47° (NE) 10:54:50 437.485
ZACube-1 26 Jan 10:52:45 10:56:47 33° 291° (WNW) 11:00:41 437.345
ESTCUBE 1 26 Jan 11:01:24 11:05:54 63° 101° (E) 11:10:24 437.505/2401.250
HO-68 26 Jan 11:01:45 11:06:21 18° 307° (NW) 11:10:42 435.675
DX 1 26 Jan 11:01:47 11:05:20 24° 293° (WNW) 11:08:47 434.975-435.025
FUNcube-1 26 Jan 11:06:09 11:09:50 25° 293° (WNW) 11:13:23 145.935
AISAT 26 Jan 11:09:33 11:13:55 48° 288° (WNW) 11:18:15 437.250
TISAT 1 26 Jan 11:10:48 11:13:42 18° 91° (E) 11:16:43 437.305
NANOSAT C BR1 26 Jan 11:15:00 11:17:32 15° 271° (W) 11:19:54 145.865
UNISAT 6 26 Jan 11:17:41 11:18:45 10° 274° (W) 11:19:29 437.425
UWE-3 26 Jan 11:18:21 11:21:22 17° 296° (WNW) 11:24:12 435.000/436.395/437.385
HUMSAT D 26 Jan 11:22:15 11:25:55 27° 292° (WNW) 11:29:27 437.325/437.525
QB50P2 26 Jan 11:28:58 11:30:05 11° 273° (W) 11:30:57 145.880/145.840
50 SAT 26 Jan 11:29:20 11:32:51 28° 291° (WNW) 11:36:17 437.505
VELOX 1 26 Jan 11:40:09 11:43:53 25° 293° (WNW) 11:47:31 145.980
GONETS M04 26 Jan 11:40:42 11:48:48 42° 71° (ENE) 11:56:58
VERMONT LUNAR 26 Jan 11:44:34 11:47:59 51° 177° (S) 11:51:26 437.305
AIST 2 26 Jan 11:45:48 11:49:58 46° 50° (NE) 11:54:04 435.215
SPROUT 26 Jan 11:56:52 12:01:10 58° 100° (E) 12:05:28 437.525
CUBEBUG 1 26 Jan 11:58:26 12:02:31 35° 290° (WNW) 12:06:33 437.445
SO-50 26 Jan 12:01:43 12:06:00 36° 314° (NW) 12:10:24 436.795
PCSat 26 Jan 12:02:07 12:05:25 16° 36° (NE) 12:08:52 145.827
BEESAT 2 26 Jan 12:07:38 12:11:41 48° 242° (WSW) 12:15:39 435.950
AIST 1 26 Jan 12:11:17 12:15:12 35° 285° (WNW) 12:19:08
Oscar 19 26 Jan 12:12:52 12:18:00 65° 73° (ENE) 12:23:11 437.125/150
ITAMSAT 1 26 Jan 12:22:22 12:26:46 30° 66° (ENE) 12:31:18 435.822/435.867
PHONESAT 2.4 26 Jan 12:23:44 12:27:17 53° 178° (S) 12:30:52 2401.200-2431.200
BEESAT 3 26 Jan 12:25:35 12:29:10 28° 245° (WSW) 12:32:39 437.485
ESTCUBE 1 26 Jan 12:39:43 12:42:22 15° 297° (WNW) 12:44:50 437.505/2401.250
TISAT 1 26 Jan 12:45:41 12:49:47 42° 289° (WNW) 12:53:50 437.305
AO-7 26 Jan 12:49:10 12:54:07 18° 47° (NE) 12:59:25 29.400- 29.500
RS-15 26 Jan 12:53:22 13:04:15 51° 42° (NE) 13:15:40 29.354- 29.394
Gurwin Techsat 1B 26 Jan 12:59:26 13:04:26 44° 70° (ENE) 13:09:28 435.225
SWISSCUBE 26 Jan 13:14:51 13:19:35 60° 101° (E) 13:24:20 437.505
VERMONT LUNAR 26 Jan 13:22:33 13:25:53 39° 193° (SSW) 13:29:13 437.305
AIST 2 26 Jan 13:25:09 13:28:19 20° 247° (WSW) 13:31:19 435.215
BEESAT 26 Jan 13:31:18 13:36:06 81° 104° (ESE) 13:40:53 436.000
ITUPSAT 1 26 Jan 13:33:04 13:37:54 83° 103° (ESE) 13:42:42 437.325
SPROUT 26 Jan 13:34:17 13:36:52 15° 296° (WNW) 13:39:17 437.525
CUSAT 1 26 Jan 13:34:53 13:38:20 15° 51° (NE) 13:41:42 437.405
GONETS M04 26 Jan 13:37:38 13:45:46 45° 271° (W) 13:53:46
PCSat 26 Jan 13:44:23 13:49:50 77° 57° (ENE) 13:55:16 145.827
Oscar 19 26 Jan 13:54:33 13:57:55 16° 271° (W) 14:01:03 437.125/150
HORYU 2 26 Jan 13:56:04 14:00:23 47° 71° (ENE) 14:04:43 437.375
ITAMSAT 1 26 Jan 14:01:27 14:06:12 36° 263° (W) 14:10:59 435.822/435.867
PHONESAT 2.4 26 Jan 14:02:12 14:05:37 38° 195° (SSW) 14:09:04 2401.200-2431.200
M-CUBED/EXP-1 PRIME 26 Jan 14:28:35 14:30:17 14° 97° (E) 14:32:07 437.505
DANDE 26 Jan 14:30:03 14:36:33 33° 64° (ENE) 14:41:46 436.750
AO-7 26 Jan 14:37:20 14:45:37 70° 68° (ENE) 14:53:57 29.400- 29.500
Gurwin Techsat 1B 26 Jan 14:40:13 14:44:38 25° 267° (W) 14:48:57 435.225
KKS-1 26 Jan 14:44:34 14:49:07 84° 285° (WNW) 14:53:36 437.445
STARS 26 Jan 14:45:29 14:49:56 67° 102° (ESE) 14:54:21 437.465
SWISSCUBE 26 Jan 14:53:55 14:57:03 17° 297° (WNW) 15:00:01 437.505
JAS-2 26 Jan 15:00:21 15:05:20 36° 69° (ENE) 15:10:07 435.910
VERMONT LUNAR 26 Jan 15:01:29 15:03:31 14° 209° (SSW) 15:05:30 437.305
AUBIESAT-1 26 Jan 15:03:26 15:06:28 33° 103° (ESE) 15:09:33 437.475
RS-15 26 Jan 15:05:59 15:17:00 57° 245° (WSW) 15:28:23 29.354- 29.394
BEESAT 26 Jan 15:11:06 15:13:23 13° 300° (WNW) 15:15:27 436.000
ITUPSAT 1 26 Jan 15:12:58 15:15:13 13° 300° (WNW) 15:17:14 437.325
CUSAT 1 26 Jan 15:16:12 15:23:06 83° 78° (ENE) 15:28:13 437.405
PCSat 26 Jan 15:29:26 15:32:41 16° 254° (WSW) 15:35:42 145.827
HORYU 2 26 Jan 15:34:11 15:37:21 18° 269° (W) 15:40:23 437.375
PHONESAT 2.4 26 Jan 15:41:40 15:43:41 14° 209° (SSW) 15:45:37 2401.200-2431.200
Cubesat XI-IV 26 Jan 15:42:16 15:44:57 15° 59° (ENE) 15:47:53 437.490
O/OREOS (USA 219) 26 Jan 15:53:28 15:57:13 27° 104° (ESE) 16:01:05 437.305
MOZHAYETS 4 26 Jan 16:01:09 16:04:59 27° 94° (E) 16:08:53
CUTE-I 26 Jan 16:01:53 16:05:41 21° 63° (ENE) 16:09:40 437.470
M-CUBED/EXP-1 PRIME 26 Jan 16:02:28 16:05:30 33° 294° (WNW) 16:08:31 437.505
DANDE 26 Jan 16:13:32 16:20:16 43° 271° (W) 16:25:23 436.750
STARS 26 Jan 16:23:33 16:25:57 14° 298° (WNW) 16:28:09 437.465
AO-7 26 Jan 16:32:10 16:39:09 28° 268° (W) 16:45:55 29.400- 29.500
AUBIESAT-1 26 Jan 16:39:16 16:41:14 15° 299° (WNW) 16:43:05 437.475
JAS-2 26 Jan 16:45:42 16:50:36 29° 265° (W) 16:55:08 435.910
CUSAT 1 26 Jan 17:01:26 17:04:49 14° 283° (WNW) 17:07:31 437.405
SO-50 26 Jan 17:12:49 17:14:05 11° 26° (NNE) 17:15:30 436.795
Cubesat XI-IV 26 Jan 17:19:05 17:24:25 86° 255° (WSW) 17:29:48 437.490
RS-15 26 Jan 17:24:40 17:27:21 11° 264° (W) 17:28:45 29.354- 29.394
PRISM 26 Jan 17:29:02 17:32:16 22° 94° (E) 17:35:34 437.425
O/OREOS (USA 219) 26 Jan 17:32:32 17:36:34 31° 302° (WNW) 17:40:37 437.305
MOZHAYETS 4 26 Jan 17:38:12 17:42:17 32° 291° (WNW) 17:46:17
CUTE-I 26 Jan 17:40:10 17:45:24 58° 259° (W) 17:50:40 437.470
CUBESAT XI-V 26 Jan 17:44:47 17:48:39 26° 93° (E) 17:52:36 437.345
HO-68 26 Jan 17:57:21 18:01:51 19° 54° (NE) 18:06:37 435.675
STRAND 1 26 Jan 18:15:07 18:19:51 36° 96° (E) 18:24:36 437.568
SEEDS 26 Jan 18:41:37 18:43:35 13° 64° (ENE) 18:45:45 437.485
YUBILEINY 26 Jan 18:41:49 18:49:18 35° 86° (E) 18:56:59 435.215
SO-50 26 Jan 18:51:18 18:55:59 43° 48° (NE) 19:00:41 436.795
Cubesat XI-IV 26 Jan 19:03:56 19:05:27 11° 275° (W) 19:06:38 437.490
PRISM 26 Jan 19:04:09 19:07:52 32° 291° (WNW) 19:11:34 437.425
COMPASS 1 26 Jan 19:11:05 19:14:20 22° 67° (ENE) 19:17:39 437.405
BRITE-PL 26 Jan 19:11:18 19:16:02 47° 71° (ENE) 19:21:12 437.365/2234.400
CANX-2 26 Jan 19:15:37 19:19:34 37° 71° (ENE) 19:23:33 2200.000
CUBESAT XI-V 26 Jan 19:21:55 19:26:12 35° 290° (WNW) 19:30:25 437.345
GOMX 1 26 Jan 19:21:59 19:26:42 43° 70° (ENE) 19:31:45 467.674
Oscar 11 26 Jan 19:32:20 19:35:09 18° 65° (ENE) 19:38:08 145.826/435.025
AAUSAT CUBESAT 2 26 Jan 19:38:58 19:42:51 37° 71° (ENE) 19:46:46 437.432
CUTE 1.7 + AOD 2 26 Jan 19:39:53 19:44:08 62° 74° (ENE) 19:48:23 437.475
HO-68 26 Jan 19:41:32 19:48:42 85° 72° (ENE) 19:55:54 435.675
DOVE 4 26 Jan 19:48:01 19:52:52 55° 72° (ENE) 19:58:01 437.250
DELFI C3 26 Jan 19:51:54 19:54:58 21° 67° (ENE) 19:58:06 145.870
CUBEBUG 2 26 Jan 19:53:27 19:57:04 23° 66° (ENE) 20:00:51 437.445
STRAND 1 26 Jan 19:54:30 19:58:59 30° 294° (WNW) 20:03:23 437.568
CINEMA 3 26 Jan 19:57:14 20:01:47 40° 70° (ENE) 20:06:30 145.822/145.860
UKube-1 26 Jan 20:05:23 20:08:49 24° 66° (ENE) 20:12:19 .
ZACube-1 26 Jan 20:13:54 20:17:36 25° 67° (ENE) 20:21:23 437.345
SEEDS 26 Jan 20:14:44 20:18:58 64° 259° (W) 20:23:13 437.485
DX 1 26 Jan 20:22:02 20:26:00 36° 70° (ENE) 20:30:01 434.975-435.025
FUNcube-1 26 Jan 20:26:28 20:30:31 32° 69° (ENE) 20:34:38 145.935
SO-50 26 Jan 20:32:11 20:36:25 28° 245° (WSW) 20:40:34 436.795
AISAT 26 Jan 20:33:34 20:36:41 20° 65° (ENE) 20:39:57 437.250
YUBILEINY 26 Jan 20:37:24 20:45:52 53° 286° (WNW) 20:54:20 435.215
UWE-3 26 Jan 20:38:42 20:43:12 51° 73° (ENE) 20:47:48 435.000/436.395/437.385
HUMSAT D 26 Jan 20:39:55 20:43:25 25° 68° (ENE) 20:47:02 437.325/437.525
50 SAT 26 Jan 20:43:31 20:46:29 20° 67° (ENE) 20:49:33 437.505
COMPASS 1 26 Jan 20:46:00 20:49:54 34° 264° (W) 20:53:46 437.405
BRITE-PL 26 Jan 20:50:56 20:54:54 23° 271° (W) 20:58:59 437.365/2234.400
CANX-2 26 Jan 20:52:22 20:55:41 21° 268° (W) 20:58:53 2200.000
GOMX 1 26 Jan 21:00:54 21:05:03 25° 269° (W) 21:09:20 467.674
VELOX 1 26 Jan 21:02:22 21:06:23 35° 70° (ENE) 21:10:28 145.980
Oscar 11 26 Jan 21:06:49 21:11:02 48° 261° (W) 21:15:16 145.826/435.025
AAUSAT CUBESAT 2 26 Jan 21:15:32 21:18:42 20° 268° (W) 21:21:44 437.432
CUTE 1.7 + AOD 2 26 Jan 21:18:37 21:20:34 12° 272° (W) 21:22:18 437.475
CUBEBUG 1 26 Jan 21:20:19 21:23:42 23° 66° (ENE) 21:27:10 437.445
DELFI C3 26 Jan 21:26:17 21:30:03 34° 264° (W) 21:33:47 145.870
DOVE 4 26 Jan 21:27:27 21:31:05 19° 272° (W) 21:34:42 437.250
CUBEBUG 2 26 Jan 21:29:01 21:33:32 43° 263° (W) 21:38:07 437.445
UNISAT 6 26 Jan 21:29:03 21:31:48 16° 89° (E) 21:34:41 437.425
HO-68 26 Jan 21:32:34 21:37:24 18° 272° (W) 21:41:53 435.675
ISS 26 Jan 21:33:34 21:34:51 12° 132° (SE) 21:36:15 145.825
CINEMA 3 26 Jan 21:35:03 21:39:09 25° 268° (W) 21:43:15 145.822/145.860
QB50P2 26 Jan 21:36:17 21:37:24 11° 87° (E) 21:38:46 145.880/145.840
UKube-1 26 Jan 21:40:53 21:44:51 34° 263° (W) 21:48:48 .
QB50P1 26 Jan 21:45:41 21:47:56 14° 89° (E) 21:50:21 145.935-145.965
ZACube-1 26 Jan 21:49:34 21:53:50 36° 264° (W) 21:58:06 437.345
POLYITAN 1 26 Jan 21:57:49 22:00:56 20° 92° (E) 22:04:09 437.675
DX 1 26 Jan 21:58:58 22:02:24 22° 267° (W) 22:05:45 434.975-435.025
ESTCUBE 1 26 Jan 22:02:13 22:06:39 67° 74° (ENE) 22:11:09 437.505/2401.250
FUNcube-1 26 Jan 22:02:56 22:06:53 27° 266° (W) 22:10:49 145.935
ANTELSAT 26 Jan 22:03:48 22:07:58 37° 96° (E) 22:12:04 437.575/2403.000
TISAT 1 26 Jan 22:05:03 22:07:43 17° 65° (ENE) 22:10:32 437.305
AISAT 26 Jan 22:08:46 22:13:02 45° 261° (W) 22:17:21 437.250
BUGSAT 1 26 Jan 22:11:46 22:14:59 21° 92° (E) 22:18:19 437.445
TIGRISAT 26 Jan 22:13:11 22:17:31 46° 98° (E) 22:21:45 435.000
HUMSAT D 26 Jan 22:15:11 22:19:07 32° 264° (W) 22:23:03 437.325/437.525
AIST 1 26 Jan 22:16:45 22:21:03 60° 79° (E) 22:25:22
UWE-3 26 Jan 22:16:53 22:20:07 18° 270° (W) 22:23:13 435.000/436.395/437.385
50 SAT 26 Jan 22:17:31 22:21:24 38° 263° (W) 22:25:17 437.505
POPSAT HIP 1 26 Jan 22:18:53 22:22:45 32° 96° (E) 22:26:38 437.405
DUCHIFAT 1 26 Jan 22:23:11 22:27:09 35° 97° (E) 22:31:06 145.980
VELOX 1 26 Jan 22:39:32 22:43:06 23° 267° (W) 22:46:36 145.980
YUBILEINY 26 Jan 22:43:18 22:45:26 11° 312° (NW) 22:46:56 435.215
SWISSCUBE 26 Jan 22:49:42 22:50:12 10° 58° (ENE) 22:50:59 437.505
SPROUT 26 Jan 22:52:10 22:56:21 51° 73° (ENE) 23:00:35 437.525
CUBEBUG 1 26 Jan 22:55:55 22:59:55 35° 264° (W) 23:03:56 437.445
NANOSAT C BR1 26 Jan 22:56:53 23:01:13 84° 103° (ESE) 23:05:31 145.865
BEESAT 26 Jan 23:04:14 23:06:26 14° 61° (ENE) 23:08:51 436.000
UNISAT 6 26 Jan 23:04:37 23:09:00 50° 288° (WNW) 23:13:15 437.425
ITUPSAT 1 26 Jan 23:06:13 23:08:30 14° 61° (ENE) 23:11:01 437.325
ISS 26 Jan 23:07:40 23:10:57 89° 321° (NW) 23:14:16 145.825
QB50P2 26 Jan 23:09:35 23:13:54 70° 285° (WNW) 23:18:11 145.880/145.840
QB50P1 26 Jan 23:20:01 23:24:15 54° 287° (WNW) 23:28:26 145.935-145.965
POLYITAN 1 26 Jan 23:33:01 23:37:05 39° 289° (WNW) 23:41:06 437.675
TISAT 1 26 Jan 23:39:07 23:43:14 48° 261° (W) 23:47:23 437.305
ANTELSAT 26 Jan 23:41:02 23:44:35 23° 294° (WNW) 23:47:59 437.575/2403.000
ESTCUBE 1 26 Jan 23:42:04 23:44:06 12° 272° (W) 23:45:54 437.505/2401.250
BUGSAT 1 26 Jan 23:46:41 23:50:38 36° 290° (WNW) 23:54:33 437.445
TIGRISAT 26 Jan 23:50:45 23:53:58 19° 296° (WNW) 23:57:01 435.000
POPSAT HIP 1 26 Jan 23:55:00 23:58:34 25° 292° (WNW) 00:02:01 437.405
AIST 1 26 Jan 23:56:24 23:58:16 12° 275° (W) 23:59:54
DUCHIFAT 1 26 Jan 23:59:26 00:02:51 23° 293° (WNW) 00:06:10 145.980
KKS-1 27 Jan 00:10:35 00:12:11 12° 61° (ENE) 00:14:01 437.445
SWISSCUBE 27 Jan 00:22:36 00:27:21 79° 75° (ENE) 00:32:09 437.505
Oscar 19 27 Jan 00:24:10 00:27:56 21° 91° (E) 00:31:48 437.125/150
SPROUT 27 Jan 00:30:13 00:32:50 15° 271° (W) 00:35:17 437.525
NANOSAT C BR1 27 Jan 00:35:23 00:36:31 11° 299° (WNW) 00:37:26 145.865
BEESAT 27 Jan 00:38:58 00:43:44 78° 258° (WSW) 00:48:31 436.000
ITUPSAT 1 27 Jan 00:41:07 00:45:52 76° 258° (WSW) 00:50:40 437.325
GONETS M04 27 Jan 00:43:08 00:51:17 46° 89° (E) 00:59:30
ISS 27 Jan 00:45:02 00:47:49 24° 346° (NNW) 00:50:36 145.825
Gurwin Techsat 1B 27 Jan 01:15:40 01:18:40 16° 88° (E) 01:21:55 435.225
M-CUBED/EXP-1 PRIME 27 Jan 01:18:00 01:21:33 30° 66° (ENE) 01:24:55 437.505
STARS 27 Jan 01:43:32 01:47:57 68° 75° (ENE) 01:52:24 437.465
KKS-1 27 Jan 01:43:47 01:48:17 81° 259° (W) 01:52:48 437.445
AUBIESAT-1 27 Jan 01:52:57 01:57:01 67° 70° (ENE) 02:00:45 437.475
O/OREOS (USA 219) 27 Jan 02:01:25 02:06:00 66° 65° (ENE) 02:10:34 437.305
Oscar 19 27 Jan 02:02:38 02:07:39 51° 289° (WNW) 02:12:35 437.125/150
BEESAT 2 27 Jan 02:04:02 02:07:19 24° 114° (ESE) 02:10:44 435.950
SWISSCUBE 27 Jan 02:04:13 02:05:56 11° 273° (W) 02:07:22 437.505
ITAMSAT 1 27 Jan 02:12:27 02:17:42 73° 103° (ESE) 02:22:56 435.822/435.867
BEESAT 3 27 Jan 02:20:17 02:24:07 39° 118° (ESE) 02:28:02 437.485
ISS 27 Jan 02:22:32 02:25:05 20° 6° (N) 02:27:39 145.825
AO-7 27 Jan 02:39:05 02:44:37 20° 88° (E) 02:50:30 29.400- 29.500
GONETS M04 27 Jan 02:40:03 02:48:16 41° 289° (WNW) 02:56:23
CUSAT 1 27 Jan 02:43:02 02:48:28 21° 82° (E) 02:54:27 437.405
M-CUBED/EXP-1 PRIME 27 Jan 02:53:14 02:56:34 23° 259° (W) 02:59:40 437.505
Gurwin Techsat 1B 27 Jan 02:53:58 02:59:17 70° 287° (WNW) 03:04:34 435.225
MOZHAYETS 4 27 Jan 03:04:23 03:08:20 30° 69° (ENE) 03:12:21
RS-15 27 Jan 03:22:34 03:29:48 22° 102° (ESE) 03:37:38 29.354- 29.394
HORYU 2 27 Jan 03:22:46 03:27:16 82° 103° (ESE) 03:31:42 437.375
STARS 27 Jan 03:23:06 03:25:00 12° 272° (W) 03:26:41 437.465
AIST 2 27 Jan 03:23:09 03:27:22 67° 121° (ESE) 03:31:39 435.215
AUBIESAT-1 27 Jan 03:31:39 03:32:18 10° 265° (W) 03:32:43 437.475
DANDE 27 Jan 03:40:22 03:47:48 44° 90° (E) 03:55:55 436.750
BEESAT 2 27 Jan 03:41:31 03:45:24 37° 312° (NW) 03:49:18 435.950
O/OREOS (USA 219) 27 Jan 03:42:39 03:44:55 13° 260° (W) 03:46:58 437.305
JAS-2 27 Jan 03:51:21 03:56:09 29° 95° (E) 04:01:30 435.910
ITAMSAT 1 27 Jan 03:53:23 03:56:41 17° 299° (WNW) 03:59:48 435.822/435.867
ISS 27 Jan 03:58:57 04:02:10 47° 26° (NNE) 04:05:23 145.825
BEESAT 3 27 Jan 03:58:58 04:02:24 25° 316° (NW) 04:05:51 437.485
PRISM 27 Jan 04:21:16 04:24:16 20° 66° (ENE) 04:27:22 437.425
CUSAT 1 27 Jan 04:22:28 04:30:35 88° 98° (E) 04:39:06 437.405
PCSat 27 Jan 04:27:04 04:32:20 56° 116° (ESE) 04:37:40 145.827
AO-7 27 Jan 04:30:12 04:38:37 88° 293° (WNW) 04:46:56 29.400- 29.500
Gurwin Techsat 1B 27 Jan 04:37:08 04:38:25 11° 304° (WNW) 04:39:24 435.225
MOZHAYETS 4 27 Jan 04:41:32 04:45:35 29° 266° (W) 04:49:33
CUBESAT XI-V 27 Jan 04:49:36 04:53:29 29° 68° (ENE) 04:57:29 437.345
YUBILEINY 27 Jan 04:50:21 04:55:56 19° 57° (ENE) 05:01:56 435.215
HORYU 2 27 Jan 05:01:43 05:03:21 12° 299° (WNW) 05:04:47 437.375
AIST 2 27 Jan 05:03:24 05:06:28 18° 321° (NW) 05:09:28 435.215
DANDE 27 Jan 05:23:25 05:31:17 49° 289° (WNW) 05:39:37 436.750
RS-15 27 Jan 05:29:49 05:40:45 87° 123° (ESE) 05:51:50 29.354- 29.394
STRAND 1 27 Jan 05:32:06 05:37:05 59° 72° (ENE) 05:42:08 437.568
Cubesat XI-IV 27 Jan 05:35:29 05:40:21 35° 96° (E) 05:45:15 437.490
ISS 27 Jan 05:35:45 05:38:34 25° 223° (SW) 05:41:20 145.825
JAS-2 27 Jan 05:36:14 05:41:25 42° 290° (WNW) 05:47:05 435.910
PRISM 27 Jan 05:55:47 05:59:36 36° 262° (W) 06:03:25 437.425
CUTE-I 27 Jan 05:56:00 06:01:14 52° 99° (E) 06:06:30 437.470
CUSAT 1 27 Jan 06:08:13 06:14:48 24° 300° (WNW) 06:21:11 437.405
PCSat 27 Jan 06:11:34 06:16:08 26° 315° (NW) 06:20:40 145.827
AO-7 27 Jan 06:24:16 06:30:28 23° 309° (NW) 06:36:23 29.400- 29.500
CUBESAT XI-V 27 Jan 06:26:49 06:30:55 30° 265° (W) 06:34:59 437.345
YUBILEINY 27 Jan 06:45:36 06:54:26 83° 81° (E) 07:03:16 435.215
HO-68 27 Jan 07:10:23 07:13:38 14° 85° (E) 07:17:23 435.675
STRAND 1 27 Jan 07:13:17 07:16:46 18° 270° (W) 07:20:04 437.568
DANDE 27 Jan 07:13:59 07:17:15 12° 312° (NW) 07:19:58 436.750
Cubesat XI-IV 27 Jan 07:15:38 07:20:26 33° 293° (WNW) 07:25:10 437.490
BRITE-PL 27 Jan 07:16:06 07:19:36 17° 86° (E) 07:23:16 437.365/2234.400
GOMX 1 27 Jan 07:24:41 07:27:08 13° 84° (E) 07:29:50 467.674
CUTE-I 27 Jan 07:36:49 07:41:01 23° 297° (WNW) 07:45:07 437.470
RS-15 27 Jan 07:44:48 07:54:39 36° 330° (NNW) 08:04:35 29.354- 29.394
DOVE 4 27 Jan 07:47:51 07:50:48 16° 86° (E) 07:53:55 437.250
SEEDS 27 Jan 07:59:08 08:02:08 19° 92° (E) 08:05:13 437.485
COMPASS 1 27 Jan 08:28:34 08:32:21 33° 96° (E) 08:36:09 437.405
UNISAT 6 27 Jan 08:29:13 08:32:30 20° 65° (ENE) 08:35:55 437.425
QB50P2 27 Jan 08:31:19 08:32:30 11° 61° (ENE) 08:33:55 145.880/145.840
CANX-2 27 Jan 08:35:29 08:39:43 63° 100° (E) 08:43:53 2200.000
QB50P1 27 Jan 08:40:30 08:42:36 14° 63° (ENE) 08:44:53 145.935-145.965
